China Lake, CA

3:35 PM PDT on June 28, 2017 (GMT -0700)
China Lake NAWS

Weather History for KNID - May, 2013

Change the Weather History Date:

Thursday, May 2, 2013

  Actual Average Record
Temperature  
Mean Temperature 66 °F -  
Max Temperature 84 °F 79 °F 97 °F (2014)
Min Temperature 51 °F 54 °F 39 °F (2011)
Cooling Degree Days 2    
Growing Degree Days 16 (Base 50)    
Moisture  
Dew Point -7 °F    
Average Humidity 6    
Maximum Humidity 9    
Minimum Humidity 4    
Precipitation  
Precipitation 0.00 in - - ()
Sea Level Pressure  
Sea Level Pressure 30.19 in    
Wind  
Wind Speed 7 mph (SSE)    
Max Wind Speed 20 mph    
Max Gust Speed 28 mph    
Visibility 10 miles    
Events      
Averages and records for this station are not official NWS values.
T = Trace of Precipitation, MM = Missing Value Source: NWS Daily Summary

Daily Weather History Graph

Daily Weather History Graph

Search for Another Location

Airport or City:

Trip Planner

Search our weather history database for the weather conditions in past years. The results will help you decide how hot, cold, wet, or windy it might be!

Date:

Astronomy

May. 02, 2013 Rise Set
Actual Time 5:57 AM PDT 7:38 PM PDT
Civil Twilight 5:29 AM PDT 8:06 PM PDT
Nautical Twilight 4:56 AM PDT 8:39 PM PDT
Astronomical Twilight 4:21 AM PDT 9:14 PM PDT
Moon 1:32 AM PDT (5/2) 12:47 PM PDT (5/2)
Length of Visible Light 14h 36m
Length of Day
13h 41m
Waning Gibbous, 46% of the Moon is Illuminated
May 2
Waning Gibbous
May 9
New
May 17
First Quarter
May 24
Full
May 31
Last Quarter

Hourly Weather History & Observations

Time (PDT) Temp. Dew Point Humidity Pressure Visibility Wind Dir Wind Speed Gust Speed Precip Events Conditions
12:56 AM 59.0 °F -11.9 °F 5% 30.16 in 10.0 mi West 5.8 mph - N/A   Clear
1:56 AM 51.1 °F -11.0 °F 7% 30.18 in 10.0 mi South 8.1 mph - N/A   Clear
2:56 AM 57.9 °F -9.0 °F 6% 30.19 in 10.0 mi SW 6.9 mph - N/A   Clear
3:56 AM 62.1 °F -7.1 °F 6% 30.19 in 10.0 mi SW 3.5 mph - N/A   Clear
4:56 AM 57.9 °F -6.0 °F 7% 30.21 in 10.0 mi Variable 3.5 mph - N/A   Clear
5:56 AM 55.9 °F -4.0 °F 9% 30.23 in 10.0 mi SSW 10.4 mph - N/A   Clear
6:56 AM 61.0 °F -2.0 °F 8% 30.26 in 10.0 mi SSE 6.9 mph - N/A   Clear
7:56 AM 66.0 °F -0.9 °F 7% 30.28 in 10.0 mi ESE 5.8 mph - N/A   Clear
8:56 AM 69.1 °F -2.9 °F 6% 30.28 in 10.0 mi Calm Calm - N/A   Clear
9:56 AM 72.0 °F -2.9 °F 5% 30.27 in 10.0 mi Calm Calm - N/A   Clear
10:56 AM 77.0 °F -4.0 °F 4% 30.26 in 10.0 mi NE 8.1 mph - N/A   Clear
11:56 AM 78.1 °F -5.1 °F 4% 30.24 in 10.0 mi East 6.9 mph 16.1 mph N/A   Clear
12:56 PM 81.0 °F -7.1 °F 4% 30.22 in 10.0 mi East 10.4 mph 26.5 mph N/A   Clear
1:56 PM 82.0 °F -8.0 °F 4% 30.20 in 10.0 mi East 19.6 mph 27.6 mph N/A   Clear
2:56 PM 82.9 °F -11.0 °F 4% 30.17 in 10.0 mi East 15.0 mph 24.2 mph N/A   Clear
3:56 PM 82.9 °F -9.9 °F 4% 30.15 in 10.0 mi East 16.1 mph 23.0 mph N/A   Clear
4:56 PM 82.9 °F -9.0 °F 4% 30.14 in 10.0 mi East 10.4 mph 18.4 mph N/A   Clear
5:56 PM 81.0 °F -9.0 °F 4% 30.14 in 10.0 mi ESE 3.5 mph - N/A   Clear
6:56 PM 80.1 °F -8.0 °F 4% 30.12 in 10.0 mi ESE 5.8 mph - N/A   Clear
7:56 PM 73.0 °F -6.0 °F 4% 30.12 in 10.0 mi SSE 5.8 mph - N/A   Clear
8:56 PM 66.9 °F -5.1 °F 6% 30.12 in 10.0 mi South 4.6 mph - N/A   Clear
9:56 PM 62.1 °F -7.1 °F 6% 30.13 in 10.0 mi SW 6.9 mph - N/A   Clear
10:56 PM 57.9 °F -8.0 °F 7% 30.12 in 10.0 mi SSW 8.1 mph - N/A   Clear
11:56 PM 55.9 °F -8.0 °F 7% 30.13 in 10.0 mi SSW 10.4 mph - N/A   Clear